| time (UTC) | temp F | wind direction | speed MPH | gust MPH | rain 1hr in | rain 24hr in | rain mn in | humidity % | barometer mb |
| 20260510214010 | 40 | 0 | 0.0 | 0.0 | 0.00 | 0.00 | 0.00 | 81 | 1015.3 |
| 20260510213511 | 40 | 0 | 0.0 | 0.0 | 0.00 | 0.00 | 0.00 | 81 | 1015.3 |
| 20260510213040 | 40 | 0 | 0.0 | 0.0 | 0.00 | 0.00 | 0.00 | 80 | 1015.3 |
| 20260510212512 | 40 | 0 | 0.0 | 0.0 | 0.00 | 0.00 | 0.00 | 80 | 1015.3 |
| 20260510212015 | 40 | 0 | 0.0 | 1.0 | 0.00 | 0.00 | 0.00 | 79 | 1015.2 |
| 20260510211530 | 41 | 0 | 0.0 | 2.0 | 0.00 | 0.00 | 0.00 | 79 | 1015.2 |
| 20260510211011 | 41 | 0 | 0.0 | 3.0 | 0.00 | 0.00 | 0.00 | 78 | 1015.2 |
| 20260510210511 | 41 | 0 | 0.0 | 4.0 | 0.00 | 0.00 | 0.00 | 78 | 1015.2 |
| 20260510210044 | 41 | 65 | 1.0 | 5.0 | 0.00 | 0.00 | 0.00 | 78 | 1015.2 |
| 20260510205512 | 42 | 69 | 2.0 | 5.0 | 0.00 | 0.00 | 0.00 | 77 | 1015.2 |
| 20260510205012 | 42 | 65 | 2.0 | 5.0 | 0.00 | 0.00 | 0.00 | 77 | 1015.2 |
| 20260510204536 | 42 | 67 | 2.0 | 5.0 | 0.00 | 0.00 | 0.00 | 77 | 1015.2 |
| 20260510204011 | 42 | 62 | 3.0 | 5.0 | 0.00 | 0.00 | 0.00 | 76 | 1015.2 |
| 20260510203510 | 43 | 70 | 2.0 | 5.0 | 0.00 | 0.00 | 0.00 | 75 | 1015.2 |
| 20260510203033 | 43 | 80 | 2.0 | 5.0 | 0.00 | 0.00 | 0.00 | 75 | 1015.2 |
| 20260510202512 | 43 | 59 | 1.0 | 5.0 | 0.00 | 0.00 | 0.00 | 74 | 1015.2 |
| 20260510202012 | 44 | 63 | 1.0 | 5.0 | 0.00 | 0.00 | 0.00 | 74 | 1015.2 |
| 20260510201529 | 44 | 72 | 2.0 | 4.0 | 0.00 | 0.00 | 0.00 | 73 | 1015.2 |
| 20260510201013 | 45 | 61 | 1.0 | 2.0 | 0.00 | 0.00 | 0.00 | 72 | 1015.3 |
| 20260510200508 | 45 | 0 | 0.0 | 2.0 | 0.00 | 0.00 | 0.00 | 71 | 1015.3 |
| 20260510200030 | 46 | 0 | 0.0 | 2.0 | 0.00 | 0.00 | 0.00 | 71 | 1015.3 |
| 20260510195512 | 46 | 0 | 1.0 | 3.0 | 0.00 | 0.00 | 0.00 | 70 | 1015.3 |
| 20260510195008 | 47 | 0 | 0.0 | 3.0 | 0.00 | 0.00 | 0.00 | 70 | 1015.3 |
| 20260510194529 | 47 | 55 | 0.0 | 3.0 | 0.00 | 0.00 | 0.00 | 70 | 1015.3 |
| 20260510194014 | 47 | 0 | 0.0 | 5.0 | 0.00 | 0.00 | 0.00 | 69 | 1015.3 |
| 20260510193511 | 48 | 0 | 0.0 | 5.0 | 0.00 | 0.00 | 0.00 | 69 | 1015.4 |
| 20260510193030 | 48 | 60 | 0.0 | 4.0 | 0.00 | 0.00 | 0.00 | 68 | 1015.4 |
| 20260510192515 | 49 | 61 | 0.0 | 4.0 | 0.00 | 0.00 | 0.00 | 68 | 1015.4 |
| 20260510192010 | 49 | 0 | 0.0 | 4.0 | 0.00 | 0.00 | 0.00 | 67 | 1015.4 |
| 20260510191527 | 50 | 0 | 0.0 | 4.0 | 0.00 | 0.00 | 0.00 | 67 | 1015.4 |
| 20260510191011 | 50 | 72 | 0.0 | 4.0 | 0.00 | 0.00 | 0.00 | 65 | 1015.5 |
| 20260510190509 | 51 | 78 | 2.0 | 4.0 | 0.00 | 0.00 | 0.00 | 64 | 1015.4 |
| 20260510190031 | 51 | 71 | 1.0 | 3.0 | 0.00 | 0.00 | 0.00 | 64 | 1015.4 |
| 20260510185508 | 51 | 56 | 0.0 | 5.0 | 0.00 | 0.00 | 0.00 | 63 | 1015.5 |
| 20260510185008 | 52 | 52 | 2.0 | 9.0 | 0.00 | 0.00 | 0.00 | 62 | 1015.6 |
| 20260510184533 | 52 | 86 | 3.0 | 10.0 | 0.00 | 0.00 | 0.00 | 61 | 1015.6 |
| 20260510184011 | 52 | 53 | 3.0 | 12.0 | 0.00 | 0.00 | 0.00 | 60 | 1015.7 |
| 20260510183512 | 53 | 64 | 4.0 | 14.0 | 0.00 | 0.00 | 0.00 | 59 | 1015.7 |
| 20260510183029 | 53 | 34 | 7.0 | 14.0 | 0.00 | 0.00 | 0.00 | 57 | 1015.7 |
| 20260510182510 | 53 | 34 | 5.0 | 14.0 | 0.00 | 0.00 | 0.00 | 58 | 1015.7 |
| 20260510182011 | 53 | 73 | 8.0 | 13.0 | 0.00 | 0.00 | 0.00 | 57 | 1015.7 |
| 20260510181559 | 53 | 150 | 3.0 | 11.0 | 0.00 | 0.00 | 0.00 | 59 | 1015.7 |
| 20260510181010 | 54 | 136 | 5.0 | 11.0 | 0.00 | 0.00 | 0.00 | 58 | 1015.6 |
| 20260510180516 | 54 | 90 | 5.0 | 11.0 | 0.00 | 0.00 | 0.00 | 58 | 1015.6 |
| 20260510180037 | 54 | 116 | 6.0 | 11.0 | 0.00 | 0.00 | 0.00 | 58 | 1015.6 |
| 20260510175508 | 54 | 66 | 5.0 | 10.0 | 0.00 | 0.00 | 0.00 | 58 | 1015.6 |
| 20260510175008 | 54 | 94 | 2.0 | 9.0 | 0.00 | 0.00 | 0.00 | 58 | 1015.6 |
| 20260510174544 | 54 | 93 | 1.0 | 13.0 | 0.00 | 0.00 | 0.00 | 58 | 1015.6 |
| 20260510174009 | 54 | 71 | 3.0 | 13.0 | 0.00 | 0.00 | 0.00 | 57 | 1015.6 |
| 20260510173511 | 55 | 75 | 5.0 | 13.0 | 0.00 | 0.00 | 0.00 | 58 | 1015.7 |
| 20260510173029 | 55 | 63 | 2.0 | 10.0 | 0.00 | 0.00 | 0.00 | 58 | 1015.6 |
| 20260510172512 | 55 | 67 | 2.0 | 9.0 | 0.00 | 0.00 | 0.00 | 57 | 1015.7 |
| 20260510172010 | 55 | 71 | 3.0 | 9.0 | 0.00 | 0.00 | 0.00 | 57 | 1015.8 |
| 20260510171530 | 55 | 65 | 1.0 | 6.0 | 0.00 | 0.00 | 0.00 | 56 | 1015.9 |
| 20260510171011 | 55 | 34 | 3.0 | 8.0 | 0.00 | 0.00 | 0.00 | 56 | 1015.9 |
| 20260510170512 | 56 | 51 | 2.0 | 10.0 | 0.00 | 0.00 | 0.00 | 56 | 1015.9 |
| 20260510170031 | 56 | 11 | 3.0 | 10.0 | 0.00 | 0.00 | 0.00 | 56 | 1016.2 |
| 20260510165507 | 56 | 11 | 2.0 | 12.0 | 0.00 | 0.00 | 0.00 | 55 | 1016.1 |
| 20260510165013 | 56 | 94 | 4.0 | 12.0 | 0.00 | 0.00 | 0.00 | 56 | 1016.2 |
| 20260510164537 | 56 | 32 | 1.0 | 6.0 | 0.00 | 0.00 | 0.00 | 56 | 1016.2 |
| 20260510164011 | 57 | 355 | 1.0 | 9.0 | 0.00 | 0.00 | 0.00 | 54 | 1016.2 |
| 20260510163509 | 58 | 85 | 3.0 | 14.0 | 0.00 | 0.00 | 0.00 | 54 | 1016.3 |
| 20260510163030 | 58 | 30 | 3.0 | 14.0 | 0.00 | 0.00 | 0.00 | 52 | 1016.3 |
| 20260510162511 | 58 | 111 | 4.0 | 12.0 | 0.00 | 0.00 | 0.00 | 55 | 1016.3 |
| 20260510162011 | 58 | 120 | 4.0 | 12.0 | 0.00 | 0.00 | 0.00 | 54 | 1016.4 |
| 20260510161532 | 58 | 92 | 5.0 | 13.0 | 0.00 | 0.00 | 0.00 | 51 | 1016.5 |
| 20260510161014 | 58 | 59 | 5.0 | 18.0 | 0.00 | 0.00 | 0.00 | 51 | 1016.6 |
| 20260510160513 | 58 | 36 | 9.0 | 18.0 | 0.00 | 0.00 | 0.00 | 55 | 1016.8 |
| 20260510160035 | 58 | 108 | 3.0 | 9.0 | 0.00 | 0.00 | 0.00 | 56 | 1016.7 |
| 20260510155512 | 58 | 49 | 1.0 | 11.0 | 0.00 | 0.00 | 0.00 | 52 | 1016.7 |
| 20260510155013 | 59 | 128 | 4.0 | 12.0 | 0.00 | 0.00 | 0.00 | 51 | 1016.7 |
| 20260510154527 | 61 | 52 | 3.0 | 12.0 | 0.00 | 0.00 | 0.00 | 49 | 1017.0 |
| 20260510154012 | 61 | 350 | 5.0 | 15.0 | 0.00 | 0.00 | 0.00 | 50 | 1017.0 |
| 20260510153512 | 0 | 77 | 4.0 | 15.0 | 0.00 | 0.00 | 0.00 | 1017.1 | |
| 20260510153032 | 0 | 51 | 8.0 | 15.0 | 0.00 | 0.00 | 0.00 | 1017.1 | |
| 20260510152513 | 62 | 64 | 5.0 | 16.0 | 0.00 | 0.00 | 0.00 | 50 | 1017.2 |
| 20260510152012 | 62 | 104 | 5.0 | 16.0 | 0.00 | 0.00 | 0.00 | 50 | 1017.2 |
| 20260510151530 | 62 | 350 | 4.0 | 10.0 | 0.00 | 0.00 | 0.00 | 51 | 1017.3 |
| 20260510151015 | 62 | 81 | 2.0 | 11.0 | 0.00 | 0.00 | 0.00 | 51 | 1017.2 |
| 20260510150512 | 62 | 63 | 4.0 | 12.0 | 0.00 | 0.00 | 0.00 | 51 | 1017.3 |
| 20260510150029 | 63 | 60 | 4.0 | 12.0 | 0.00 | 0.00 | 0.00 | 51 | 1017.5 |
| 20260510145510 | 63 | 38 | 5.0 | 14.0 | 0.00 | 0.00 | 0.00 | 50 | 1017.4 |
| 20260510145013 | 63 | 51 | 7.0 | 14.0 | 0.00 | 0.00 | 0.00 | 53 | 1017.6 |
| 20260510144529 | 63 | 18 | 5.0 | 12.0 | 0.00 | 0.00 | 0.00 | 53 | 1017.6 |
| 20260510144014 | 63 | 360 | 3.0 | 10.0 | 0.00 | 0.00 | 0.00 | 53 | 1017.6 |
| 20260510143513 | 62 | 91 | 3.0 | 12.0 | 0.00 | 0.00 | 0.00 | 53 | 1017.7 |
| 20260510143027 | 62 | 40 | 4.0 | 13.0 | 0.00 | 0.00 | 0.00 | 53 | 1017.8 |
| 20260510142512 | 62 | 343 | 3.0 | 13.0 | 0.00 | 0.00 | 0.00 | 54 | 1017.9 |
| 20260510142010 | 0 | 61 | 5.0 | 15.0 | 0.00 | 0.00 | 0.00 | 54 | 1017.8 |
| 20260510141535 | 0 | 31 | 7.0 | 18.0 | 0.00 | 0.00 | 0.00 | 1017.9 | |
| 20260510141012 | 61 | 98 | 9.0 | 18.0 | 0.00 | 0.00 | 0.00 | 54 | 1017.9 |
| 20260510140510 | 61 | 98 | 5.0 | 13.0 | 0.00 | 0.00 | 0.00 | 54 | 1018.0 |
| 20260510140028 | 62 | 54 | 5.0 | 17.0 | 0.00 | 0.00 | 0.00 | 53 | 1018.0 |
| 20260510135511 | 0 | 23 | 6.0 | 17.0 | 0.00 | 0.00 | 0.00 | 1018.1 | |
| 20260510135010 | 0 | 53 | 7.0 | 18.0 | 0.00 | 0.00 | 0.00 | 1018.1 | |
| 20260510134530 | 0 | 105 | 4.0 | 18.0 | 0.00 | 0.00 | 0.00 | 1018.1 | |
| 20260510134013 | 61 | 94 | 10.0 | 18.0 | 0.00 | 0.00 | 0.00 | 56 | 1018.1 |
| 20260510133514 | 61 | 100 | 4.0 | 17.0 | 0.00 | 0.00 | 0.00 | 56 | 1018.1 |
| 20260510133031 | 61 | 74 | 6.0 | 17.0 | 0.00 | 0.00 | 0.00 | 54 | 1018.3 |
| 20260510132511 | 62 | 355 | 4.0 | 13.0 | 0.00 | 0.00 | 0.00 | 56 | 1018.2 |
| 20260510132011 | 61 | 44 | 5.0 | 16.0 | 0.00 | 0.00 | 0.00 | 59 | 1018.2 |
| 20260510131531 | 61 | 50 | 5.0 | 16.0 | 0.00 | 0.00 | 0.00 | 59 | 1018.2 |
| 20260510131011 | 61 | 67 | 7.0 | 16.0 | 0.00 | 0.00 | 0.00 | 59 | 1018.2 |
| 20260510130510 | 61 | 122 | 5.0 | 18.0 | 0.00 | 0.00 | 0.00 | 60 | 1018.1 |
| 20260510130027 | 60 | 69 | 6.0 | 18.0 | 0.00 | 0.00 | 0.00 | 61 | 1018.2 |
| 20260510125511 | 59 | 111 | 8.0 | 18.0 | 0.00 | 0.00 | 0.00 | 60 | 1018.3 |
| 20260510125013 | 58 | 53 | 3.0 | 11.0 | 0.00 | 0.00 | 0.00 | 62 | 1018.4 |
| 20260510124529 | 58 | 107 | 3.0 | 13.0 | 0.00 | 0.00 | 0.00 | 62 | 1018.5 |
| 20260510124013 | 58 | 103 | 4.0 | 16.0 | 0.00 | 0.00 | 0.00 | 60 | 1018.6 |
| 20260510123512 | 59 | 70 | 7.0 | 21.0 | 0.00 | 0.00 | 0.00 | 60 | 1018.7 |
| 20260510123029 | 59 | 80 | 10.0 | 21.0 | 0.00 | 0.00 | 0.00 | 60 | 1018.8 |
| 20260510122512 | 59 | 52 | 7.0 | 17.0 | 0.00 | 0.00 | 0.00 | 63 | 1018.8 |
| 20260510122011 | 59 | 134 | 8.0 | 17.0 | 0.00 | 0.00 | 0.00 | 63 | 1019.0 |
| 20260510121529 | 58 | 69 | 8.0 | 16.0 | 0.00 | 0.00 | 0.00 | 63 | 1019.0 |
| 20260510121010 | 58 | 108 | 7.0 | 18.0 | 0.00 | 0.00 | 0.00 | 65 | 1019.0 |
| 20260510120511 | 57 | 124 | 9.0 | 18.0 | 0.00 | 0.00 | 0.00 | 65 | 1019.0 |
| 20260510120029 | 57 | 70 | 7.0 | 18.0 | 0.00 | 0.00 | 0.00 | 67 | 1019.0 |
| 20260510115509 | 56 | 126 | 6.0 | 18.0 | 0.00 | 0.00 | 0.00 | 69 | 1019.1 |
| 20260510115011 | 56 | 22 | 7.0 | 18.0 | 0.00 | 0.00 | 0.00 | 69 | 1019.3 |
| 20260510114531 | 56 | 119 | 6.0 | 13.0 | 0.00 | 0.00 | 0.00 | 69 | 1019.4 |
| 20260510114012 | 55 | 11 | 3.0 | 12.0 | 0.00 | 0.00 | 0.00 | 68 | 1019.4 |
| 20260510113511 | 55 | 31 | 5.0 | 11.0 | 0.00 | 0.00 | 0.00 | 72 | 1019.4 |
| 20260510113030 | 55 | 5 | 3.0 | 10.0 | 0.00 | 0.00 | 0.00 | 69 | 1019.4 |
| 20260510112510 | 55 | 348 | 5.0 | 11.0 | 0.00 | 0.00 | 0.00 | 70 | 1019.5 |
| 20260510112012 | 55 | 97 | 4.0 | 13.0 | 0.00 | 0.00 | 0.00 | 71 | 1019.6 |
| 20260510111528 | 55 | 40 | 4.0 | 14.0 | 0.00 | 0.00 | 0.00 | 71 | 1019.5 |
| 20260510111010 | 55 | 46 | 6.0 | 15.0 | 0.00 | 0.00 | 0.00 | 73 | 1019.4 |
| 20260510110514 | 54 | 44 | 4.0 | 15.0 | 0.00 | 0.00 | 0.00 | 72 | 1019.5 |
| 20260510110034 | 54 | 122 | 5.0 | 12.0 | 0.00 | 0.00 | 0.00 | 72 | 1019.5 |
| 20260510105511 | 54 | 63 | 5.0 | 15.0 | 0.00 | 0.00 | 0.00 | 73 | 1019.6 |
| 20260510105010 | 54 | 76 | 6.0 | 15.0 | 0.00 | 0.00 | 0.00 | 72 | 1019.7 |
| 20260510104527 | 54 | 101 | 3.0 | 17.0 | 0.00 | 0.00 | 0.00 | 74 | 1019.6 |
| 20260510104016 | 54 | 83 | 8.0 | 17.0 | 0.00 | 0.00 | 0.00 | 74 | 1019.7 |
| 20260510103512 | 53 | 95 | 8.0 | 17.0 | 0.00 | 0.00 | 0.00 | 75 | 1019.7 |
| 20260510103029 | 53 | 143 | 6.0 | 16.0 | 0.00 | 0.00 | 0.00 | 75 | 1019.7 |
| 20260510102513 | 53 | 102 | 5.0 | 16.0 | 0.00 | 0.00 | 0.00 | 76 | 1019.8 |
| 20260510102013 | 53 | 56 | 3.0 | 13.0 | 0.00 | 0.00 | 0.00 | 75 | 1019.9 |
| 20260510101528 | 53 | 55 | 4.0 | 16.0 | 0.00 | 0.00 | 0.00 | 76 | 1019.9 |
| 20260510101010 | 52 | 113 | 3.0 | 16.0 | 0.00 | 0.00 | 0.00 | 75 | 1019.9 |
| 20260510100513 | 52 | 109 | 5.0 | 16.0 | 0.00 | 0.00 | 0.00 | 76 | 1019.9 |
| 20260510100034 | 52 | 42 | 9.0 | 16.0 | 0.00 | 0.00 | 0.00 | 78 | 1020.1 |
| 20260510095510 | 51 | 94 | 6.0 | 16.0 | 0.00 | 0.00 | 0.00 | 78 | 1020.1 |
| 20260510095010 | 51 | 62 | 7.0 | 15.0 | 0.00 | 0.00 | 0.00 | 79 | 1020.2 |
| 20260510094532 | 51 | 33 | 4.0 | 13.0 | 0.00 | 0.00 | 0.00 | 79 | 1020.1 |
| 20260510094010 | 50 | 114 | 4.0 | 13.0 | 0.00 | 0.00 | 0.00 | 79 | 1020.0 |
| 20260510093514 | 50 | 96 | 5.0 | 13.0 | 0.00 | 0.00 | 0.00 | 80 | 1020.1 |
| 20260510093040 | 50 | 92 | 3.0 | 11.0 | 0.00 | 0.00 | 0.00 | 80 | 1020.2 |
| 20260510092514 | 50 | 54 | 3.0 | 13.0 | 0.00 | 0.00 | 0.00 | 80 | 1020.3 |
| 20260510092017 | 50 | 43 | 3.0 | 13.0 | 0.00 | 0.00 | 0.00 | 80 | 1020.3 |
| 20260510091532 | 49 | 40 | 3.0 | 14.0 | 0.00 | 0.00 | 0.00 | 81 | 1020.4 |
| 20260510091012 | 49 | 67 | 5.0 | 14.0 | 0.00 | 0.00 | 0.00 | 81 | 1020.3 |
| 20260510090509 | 49 | 99 | 6.0 | 14.0 | 0.00 | 0.00 | 0.00 | 82 | 1020.5 |
| 20260510090034 | 49 | 62 | 6.0 | 14.0 | 0.00 | 0.00 | 0.00 | 83 | 1020.4 |
| 20260510085510 | 48 | 108 | 4.0 | 11.0 | 0.00 | 0.00 | 0.00 | 84 | 1020.4 |
| 20260510085016 | 48 | 70 | 3.0 | 13.0 | 0.00 | 0.00 | 0.00 | 83 | 1020.5 |
| 20260510084532 | 48 | 26 | 6.0 | 13.0 | 0.00 | 0.00 | 0.00 | 83 | 1020.6 |
| 20260510084010 | 48 | 36 | 4.0 | 10.0 | 0.00 | 0.00 | 0.00 | 83 | 1020.6 |
| 20260510083510 | 48 | 71 | 3.0 | 13.0 | 0.00 | 0.00 | 0.00 | 83 | 1020.5 |
| 20260510083030 | 48 | 58 | 2.0 | 14.0 | 0.00 | 0.00 | 0.00 | 84 | 1020.4 |
| 20260510082509 | 48 | 49 | 3.0 | 14.0 | 0.00 | 0.00 | 0.00 | 84 | 1020.5 |
| 20260510082010 | 47 | 87 | 5.0 | 13.0 | 0.00 | 0.00 | 0.00 | 85 | 1020.4 |
| 20260510081529 | 47 | 63 | 6.0 | 15.0 | 0.00 | 0.00 | 0.00 | 85 | 1020.4 |
| 20260510081011 | 47 | 36 | 3.0 | 15.0 | 0.00 | 0.00 | 0.00 | 85 | 1020.4 |
| 20260510080513 | 47 | 69 | 4.0 | 15.0 | 0.00 | 0.00 | 0.00 | 85 | 1020.4 |
| 20260510080027 | 47 | 360 | 5.0 | 14.0 | 0.00 | 0.00 | 0.00 | 86 | 1020.4 |
| 20260510075510 | 47 | 53 | 5.0 | 13.0 | 0.00 | 0.00 | 0.00 | 86 | 1020.4 |
| 20260510075012 | 47 | 106 | 3.0 | 12.0 | 0.00 | 0.00 | 0.00 | 86 | 1020.3 |
| 20260510074534 | 47 | 53 | 6.0 | 12.0 | 0.00 | 0.00 | 0.00 | 86 | 1020.2 |
| 20260510074013 | 47 | 331 | 3.0 | 13.0 | 0.00 | 0.00 | 0.00 | 86 | 1020.3 |
| 20260510073511 | 47 | 31 | 5.0 | 13.0 | 0.00 | 0.00 | 0.00 | 87 | 1020.2 |
| 20260510073028 | 47 | 39 | 4.0 | 12.0 | 0.00 | 0.00 | 0.00 | 87 | 1020.2 |
| 20260510072511 | 47 | 360 | 4.0 | 12.0 | 0.00 | 0.00 | 0.00 | 87 | 1020.2 |
| 20260510072013 | 47 | 111 | 4.0 | 14.0 | 0.00 | 0.00 | 0.00 | 87 | 1020.2 |
| 20260510071537 | 47 | 119 | 5.0 | 18.0 | 0.00 | 0.00 | 0.00 | 87 | 1020.3 |
| 20260510071012 | 47 | 73 | 8.0 | 18.0 | 0.00 | 0.00 | 0.00 | 88 | 1020.2 |
| 20260510070511 | 47 | 37 | 7.0 | 18.0 | 0.00 | 0.00 | 0.00 | 88 | 1020.1 |
| 20260510070028 | 46 | 121 | 5.0 | 18.0 | 0.00 | 0.00 | 0.00 | 88 | 1020.2 |
| 20260510065512 | 46 | 135 | 9.0 | 18.0 | 0.00 | 0.00 | 0.00 | 88 | 1020.2 |
| 20260510065011 | 46 | 69 | 5.0 | 15.0 | 0.00 | 0.00 | 0.00 | 89 | 1020.2 |
| 20260510064528 | 46 | 95 | 5.0 | 23.0 | 0.00 | 0.00 | 0.00 | 89 | 1020.3 |
| 20260510064012 | 46 | 39 | 7.0 | 23.0 | 0.00 | 0.00 | 0.00 | 88 | 1020.2 |
| 20260510063512 | 46 | 75 | 5.0 | 15.0 | 0.00 | 0.00 | 0.00 | 89 | 1020.2 |
| 20260510063030 | 46 | 33 | 6.0 | 15.0 | 0.00 | 0.00 | 0.00 | 89 | 1020.3 |
| 20260510062512 | 46 | 65 | 6.0 | 16.0 | 0.00 | 0.00 | 0.00 | 89 | 1020.2 |
| 20260510062011 | 46 | 100 | 6.0 | 16.0 | 0.00 | 0.00 | 0.00 | 89 | 1020.2 |
| 20260510061540 | 46 | 74 | 4.0 | 16.0 | 0.00 | 0.00 | 0.00 | 89 | 1020.2 |
| 20260510061012 | 47 | 100 | 4.0 | 16.0 | 0.00 | 0.00 | 0.00 | 89 | 1020.2 |
| 20260510060512 | 46 | 124 | 7.0 | 16.0 | 0.00 | 0.00 | 0.00 | 89 | 1020.2 |
| 20260510060029 | 46 | 19 | 5.0 | 13.0 | 0.00 | 0.00 | 0.00 | 89 | 1020.2 |
| 20260510055511 | 46 | 64 | 3.0 | 11.0 | 0.00 | 0.00 | 0.00 | 89 | 1020.1 |
| 20260510055011 | 46 | 46 | 4.0 | 11.0 | 0.00 | 0.00 | 0.00 | 89 | 1020.1 |
| 20260510054530 | 46 | 59 | 2.0 | 13.0 | 0.00 | 0.00 | 0.00 | 89 | 1020.1 |
| 20260510054013 | 47 | 32 | 4.0 | 13.0 | 0.00 | 0.00 | 0.00 | 89 | 1020.1 |
| 20260510053511 | 47 | 10 | 2.0 | 9.0 | 0.00 | 0.00 | 0.00 | 90 | 1020.1 |
| 20260510053027 | 47 | 87 | 3.0 | 12.0 | 0.00 | 0.00 | 0.00 | 90 | 1020.1 |
| 20260510052513 | 47 | 103 | 4.0 | 12.0 | 0.00 | 0.00 | 0.00 | 90 | 1020.2 |
| 20260510052012 | 47 | 43 | 2.0 | 10.0 | 0.00 | 0.00 | 0.00 | 90 | 1020.1 |
| 20260510051530 | 47 | 88 | 2.0 | 11.0 | 0.00 | 0.00 | 0.00 | 90 | 1020.2 |
| 20260510051011 | 47 | 13 | 3.0 | 11.0 | 0.00 | 0.00 | 0.00 | 90 | 1020.3 |
| 20260510050511 | 47 | 27 | 3.0 | 9.0 | 0.00 | 0.00 | 0.00 | 90 | 1020.3 |
| 20260510050031 | 47 | 87 | 2.0 | 9.0 | 0.00 | 0.00 | 0.00 | 91 | 1020.3 |
| 20260510045512 | 47 | 86 | 3.0 | 13.0 | 0.00 | 0.01 | 0.00 | 90 | 1020.3 |
| 20260510045012 | 47 | 84 | 2.0 | 13.0 | 0.00 | 0.01 | 0.00 | 91 | 1020.3 |
| 20260510044530 | 47 | 61 | 2.0 | 8.0 | 0.00 | 0.01 | 0.00 | 91 | 1020.2 |
| 20260510044008 | 47 | 29 | 3.0 | 11.0 | 0.00 | 0.01 | 0.00 | 91 | 1020.0 |
| 20260510043512 | 47 | 81 | 2.0 | 11.0 | 0.00 | 0.01 | 0.00 | 91 | 1020.1 |
| 20260510043028 | 47 | 55 | 3.0 | 10.0 | 0.00 | 0.01 | 0.00 | 91 | 1020.0 |
| 20260510042510 | 47 | 28 | 3.0 | 12.0 | 0.00 | 0.01 | 0.00 | 91 | 1020.0 |
| 20260510042012 | 47 | 34 | 3.0 | 12.0 | 0.00 | 0.01 | 0.00 | 91 | 1020.1 |
| 20260510041528 | 47 | 62 | 2.0 | 16.0 | 0.00 | 0.01 | 0.00 | 91 | 1020.1 |
| 20260510041011 | 47 | 56 | 2.0 | 16.0 | 0.00 | 0.01 | 0.00 | 91 | 1020.2 |
| 20260510040511 | 47 | 12 | 4.0 | 16.0 | 0.00 | 0.01 | 0.00 | 91 | 1020.1 |
| 20260510040027 | 47 | 35 | 4.0 | 11.0 | 0.00 | 0.01 | 0.00 | 91 | 1020.1 |
| 20260510035511 | 47 | 92 | 3.0 | 11.0 | 0.00 | 0.01 | 0.00 | 91 | 1020.2 |
| 20260510035012 | 47 | 330 | 2.0 | 11.0 | 0.00 | 0.01 | 0.00 | 91 | 1020.1 |
| 20260510034529 | 47 | 86 | 2.0 | 11.0 | 0.00 | 0.01 | 0.00 | 91 | 1020.1 |
| 20260510034012 | 47 | 126 | 3.0 | 11.0 | 0.00 | 0.01 | 0.00 | 91 | 1020.1 |
| 20260510033511 | 47 | 50 | 3.0 | 10.0 | 0.00 | 0.01 | 0.00 | 91 | 1020.1 |
| 20260510033029 | 47 | 293 | 2.0 | 10.0 | 0.00 | 0.01 | 0.00 | 91 | 1020.0 |
| 20260510032508 | 47 | 21 | 3.0 | 10.0 | 0.00 | 0.01 | 0.00 | 91 | 1020.1 |
| 20260510032011 | 47 | 61 | 2.0 | 9.0 | 0.00 | 0.01 | 0.00 | 91 | 1020.2 |
| 20260510031542 | 47 | 12 | 2.0 | 12.0 | 0.00 | 0.01 | 0.00 | 91 | 1020.3 |
| 20260510031012 | 47 | 90 | 4.0 | 12.0 | 0.00 | 0.01 | 0.00 | 92 | 1020.2 |
| 20260510030512 | 48 | 104 | 4.0 | 12.0 | 0.00 | 0.01 | 0.00 | 92 | 1020.3 |
| 20260510030030 | 48 | 70 | 3.0 | 10.0 | 0.00 | 0.01 | 0.00 | 92 | 1020.4 |
| 20260510025512 | 47 | 34 | 4.0 | 12.0 | 0.00 | 0.01 | 0.00 | 92 | 1020.3 |
| 20260510025013 | 48 | 92 | 5.0 | 12.0 | 0.00 | 0.01 | 0.00 | 92 | 1020.4 |
| 20260510024540 | 47 | 111 | 4.0 | 11.0 | 0.00 | 0.01 | 0.00 | 92 | 1020.3 |
| 20260510024013 | 48 | 82 | 4.0 | 13.0 | 0.00 | 0.01 | 0.00 | 92 | 1020.4 |
| 20260510023511 | 48 | 40 | 3.0 | 13.0 | 0.00 | 0.01 | 0.00 | 92 | 1020.3 |
| 20260510023030 | 48 | 57 | 3.0 | 14.0 | 0.00 | 0.01 | 0.00 | 91 | 1020.4 |
| 20260510022514 | 48 | 60 | 4.0 | 14.0 | 0.00 | 0.01 | 0.00 | 92 | 1020.4 |
| 20260510022011 | 48 | 72 | 2.0 | 11.0 | 0.00 | 0.01 | 0.00 | 91 | 1020.4 |
| 20260510021530 | 48 | 40 | 3.0 | 11.0 | 0.00 | 0.01 | 0.00 | 91 | 1020.5 |
| 20260510021010 | 48 | 65 | 2.0 | 6.0 | 0.00 | 0.01 | 0.00 | 91 | 1020.5 |
| 20260510020511 | 48 | 86 | 2.0 | 11.0 | 0.00 | 0.01 | 0.00 | 91 | 1020.7 |
| 20260510020030 | 48 | 118 | 2.0 | 11.0 | 0.00 | 0.01 | 0.00 | 91 | 1020.7 |
| 20260510015512 | 48 | 36 | 2.0 | 10.0 | 0.00 | 0.01 | 0.00 | 91 | 1020.7 |
| 20260510015012 | 48 | 31 | 2.0 | 9.0 | 0.00 | 0.01 | 0.00 | 90 | 1020.6 |
| 20260510014533 | 48 | 33 | 2.0 | 9.0 | 0.00 | 0.01 | 0.00 | 90 | 1020.6 |
| 20260510014012 | 48 | 46 | 2.0 | 9.0 | 0.00 | 0.01 | 0.00 | 90 | 1020.6 |
| 20260510013511 | 49 | 16 | 2.0 | 9.0 | 0.00 | 0.01 | 0.00 | 90 | 1020.5 |
| 20260510013028 | 49 | 76 | 2.0 | 13.0 | 0.00 | 0.01 | 0.00 | 90 | 1020.6 |
| 20260510012512 | 49 | 40 | 4.0 | 13.0 | 0.00 | 0.01 | 0.00 | 89 | 1020.6 |
| 20260510012009 | 49 | 71 | 3.0 | 11.0 | 0.00 | 0.01 | 0.00 | 89 | 1020.6 |
| 20260510011538 | 49 | 27 | 2.0 | 9.0 | 0.00 | 0.01 | 0.00 | 89 | 1020.5 |
| 20260510011009 | 49 | 20 | 2.0 | 11.0 | 0.00 | 0.01 | 0.00 | 89 | 1020.5 |
| 20260510010600 | 49 | 115 | 3.0 | 11.0 | 0.00 | 0.01 | 0.00 | 89 | 1020.5 |
| 20260510010027 | 49 | 33 | 3.0 | 11.0 | 0.00 | 0.01 | 0.00 | 88 | 1020.4 |
| 20260510005511 | 49 | 51 | 3.0 | 13.0 | 0.00 | 0.01 | 0.00 | 88 | 1020.3 |
| 20260510005012 | 49 | 117 | 4.0 | 13.0 | 0.00 | 0.01 | 0.00 | 89 | 1020.1 |
| 20260510004527 | 49 | 344 | 3.0 | 13.0 | 0.00 | 0.01 | 0.00 | 89 | 1020.0 |
| 20260510004011 | 49 | 34 | 2.0 | 11.0 | 0.00 | 0.01 | 0.00 | 89 | 1019.9 |
| 20260510003511 | 49 | 37 | 2.0 | 9.0 | 0.00 | 0.01 | 0.00 | 89 | 1019.8 |
| 20260510003055 | 49 | 29 | 2.0 | 9.0 | 0.00 | 0.01 | 0.00 | 89 | 1020.0 |
| 20260510002513 | 49 | 5 | 2.0 | 13.0 | 0.00 | 0.01 | 0.00 | 89 | 1020.0 |
| 20260510002012 | 49 | 25 | 2.0 | 13.0 | 0.00 | 0.01 | 0.00 | 89 | 1020.0 |
| 20260510001531 | 49 | 44 | 1.0 | 12.0 | 0.00 | 0.01 | 0.00 | 89 | 1020.0 |
| 20260510001009 | 49 | 48 | 3.0 | 12.0 | 0.00 | 0.01 | 0.00 | 89 | 1019.9 |
| 20260510000509 | 49 | 71 | 2.0 | 12.0 | 0.00 | 0.01 | 0.00 | 89 | 1020.0 |
| 20260510000030 | 49 | 44 | 2.0 | 9.0 | 0.00 | 0.01 | 0.00 | 89 | 1019.9 |
| 20260509235508 | 49 | 98 | 2.0 | 13.0 | 0.00 | 0.01 | 0.00 | 89 | 1020.0 |
| 20260509235011 | 49 | 12 | 3.0 | 13.0 | 0.00 | 0.01 | 0.00 | 89 | 1020.1 |
| 20260509234530 | 49 | 18 | 4.0 | 13.0 | 0.00 | 0.01 | 0.00 | 89 | 1020.2 |
| 20260509234010 | 49 | 55 | 3.0 | 14.0 | 0.00 | 0.01 | 0.00 | 89 | 1020.2 |
| 20260509233511 | 49 | 132 | 3.0 | 14.0 | 0.00 | 0.01 | 0.00 | 89 | 1020.1 |
| 20260509233030 | 49 | 5 | 2.0 | 8.0 | 0.00 | 0.01 | 0.00 | 89 | 1020.2 |
| 20260509232512 | 49 | 44 | 3.0 | 7.0 | 0.00 | 0.01 | 0.00 | 90 | 1020.2 |
| 20260509232010 | 49 | 34 | 1.0 | 6.0 | 0.00 | 0.01 | 0.00 | 90 | 1020.2 |
| 20260509231532 | 49 | 41 | 2.0 | 6.0 | 0.00 | 0.01 | 0.00 | 90 | 1020.2 |
| 20260509231012 | 49 | 5 | 2.0 | 6.0 | 0.00 | 0.01 | 0.00 | 90 | 1020.2 |
| 20260509230510 | 49 | 20 | 2.0 | 5.0 | 0.00 | 0.01 | 0.00 | 90 | 1020.1 |
| 20260509230033 | 49 | 83 | 1.0 | 7.0 | 0.00 | 0.01 | 0.00 | 90 | 1020.1 |
| 20260509225509 | 49 | 90 | 1.0 | 10.0 | 0.00 | 0.02 | 0.01 | 90 | 1020.1 |
| 20260509225009 | 49 | 75 | 2.0 | 10.0 | 0.00 | 0.02 | 0.01 | 90 | 1020.0 |
| 20260509224532 | 49 | 59 | 2.0 | 12.0 | 0.00 | 0.02 | 0.01 | 90 | 1020.0 |
| 20260509224010 | 49 | 68 | 3.0 | 12.0 | 0.00 | 0.02 | 0.01 | 89 | 1020.0 |
| 20260509223511 | 49 | 69 | 3.0 | 11.0 | 0.00 | 0.02 | 0.01 | 89 | 1020.0 |
| 20260509223031 | 49 | 76 | 3.0 | 11.0 | 0.00 | 0.02 | 0.01 | 89 | 1020.0 |
| 20260509222513 | 49 | 115 | 5.0 | 12.0 | 0.00 | 0.02 | 0.01 | 89 | 1019.9 |
| 20260509222012 | 49 | 73 | 3.0 | 12.0 | 0.00 | 0.02 | 0.01 | 89 | 1019.9 |
| 20260509221528 | 49 | 132 | 5.0 | 14.0 | 0.00 | 0.02 | 0.01 | 89 | 1019.9 |
| 20260509221011 | 50 | 66 | 6.0 | 14.0 | 0.00 | 0.02 | 0.01 | 89 | 1019.9 |
| 20260509220511 | 50 | 116 | 6.0 | 13.0 | 0.00 | 0.02 | 0.01 | 89 | 1019.8 |
| 20260509220100 | 50 | 30 | 4.0 | 14.0 | 0.00 | 0.02 | 0.01 | 88 | 1019.7 |
| 20260509215513 | 50 | 346 | 6.0 | 16.0 | 0.00 | 0.03 | 0.01 | 88 | 1019.7 |
| 20260509215013 | 50 | 65 | 7.0 | 18.0 | 0.00 | 0.03 | 0.01 | 88 | 1019.7 |
| 20260509214531 | 50 | 26 | 8.0 | 18.0 | 0.00 | 0.03 | 0.01 | 88 | 1019.6 |